W8BYH Weather Reports


time (UTC)temp
C
wind
direction
speed
KPH
gust
KPH
rain 1hr
cm
rain 24hr
cm
rain mn
cm
humidity
%
barometer
mb
20260506111542 16 0 0.0 0.0 0.00 0.00 0.00 89 1015.0
20260506110050 16 0 0.0 0.0 0.00 0.00 0.00 89 1014.8
20260506104543 15 0 0.0 0.0 0.00 0.00 0.00 89 1014.6
20260506103047 15 0 0.0 0.0 0.00 0.00 0.00 88 1014.2
20260506101552 15 0 0.0 0.0 0.00 0.00 0.00 87 1013.9
20260506100046 15 0 0.0 0.0 0.00 0.00 0.00 86 1013.7
20260506094547 15 0 0.0 0.0 0.00 0.00 0.00 85 1014.0
20260506093036 15 0 0.0 0.0 0.00 0.00 0.00 84 1013.8
20260506091546 15 0 0.0 0.0 0.00 0.00 0.00 84 1013.6
20260506090045 15 0 0.0 0.0 0.00 0.00 0.00 83 1013.7
20260506084539 15 0 0.0 0.0 0.00 0.00 0.00 83 1013.7
20260506083041 15 0 0.0 0.0 0.00 0.00 0.00 83 1013.8
20260506081536 15 0 0.0 0.0 0.00 0.00 0.00 83 1013.7
20260506073046 15 0 0.0 0.0 0.00 0.00 0.00 80 1013.9
20260506071555 15 0 0.0 0.0 0.00 0.00 0.00 78 1014.2
20260506061544 15 0 0.0 0.0 0.00 0.00 0.00 79 1014.4
20260506044542 16 0 0.0 0.0 0.00 0.00 0.00 77 1014.6
20260506043037 16 0 0.0 0.0 0.00 0.00 0.00 76 1014.5
20260506041557 16 0 0.0 0.0 0.00 0.00 0.00 74 1014.1
20260506040045 16 0 0.0 0.0 0.00 0.00 0.00 74 1014.1
20260506034545 16 0 0.0 0.0 0.00 0.00 0.00 72 1014.5
20260506033041 17 0 0.0 0.0 0.00 0.00 0.00 72 1014.4
20260506031536 17 0 0.0 0.0 0.00 0.00 0.00 70 1014.5
20260506030042 17 0 0.0 0.0 0.00 0.00 0.00 70 1014.3
20260506024547 17 0 0.0 0.0 0.00 0.00 0.00 67 1014.3
20260506023040 18 0 0.0 0.0 0.00 0.00 0.00 67 1014.3
20260506021541 18 0 0.0 0.0 0.00 0.00 0.00 66 1014.3
20260506020037 18 0 0.0 0.0 0.00 0.00 0.00 64 1014.2
20260506014551 18 0 0.0 0.0 0.00 0.00 0.00 63 1014.0
20260506013044 19 0 0.0 0.0 0.00 0.00 0.00 62 1014.2
20260506011543 20 0 0.0 0.0 0.00 0.00 0.00 60 1014.0
20260506010040 20 0 0.0 0.0 0.00 0.00 0.00 58 1013.9
20260506004547 21 0 0.0 0.0 0.00 0.00 0.00 56 1014.1
20260506003046 22 0 0.0 0.0 0.00 0.00 0.00 54 1014.1
20260506001606 22 0 0.0 0.0 0.00 0.00 0.00 51 1013.9
20260506000048 22 0 0.0 0.0 0.00 0.00 0.00 51 1013.8
20260505234549 23 0 0.0 1.6 0.00 0.00 0.00 48 1013.8
20260505233049 23 0 0.0 0.0 0.00 0.00 0.00 47 1013.8
20260505231552 23 0 0.0 1.6 0.00 0.00 0.00 45 1013.8
20260505230045 24 0 0.0 3.2 0.00 0.00 0.00 44 1013.7
20260505224547 24 0 0.0 4.8 0.00 0.00 0.00 42 1013.5
20260505223043 24 0 0.0 4.8 0.00 0.00 0.00 42 1013.5
20260505221550 25 98 0.0 4.8 0.00 0.00 0.00 43 1013.3
20260505220047 25 30 0.0 4.8 0.00 0.00 0.00 42 1013.4
20260505214557 25 355 0.0 3.2 0.00 0.00 0.00 42 1013.5
20260505213053 25 38 0.0 6.4 0.00 0.00 0.00 44 1013.5
20260505211547 25 0 0.0 3.2 0.00 0.00 0.00 43 1013.6
20260505210049 25 0 0.0 3.2 0.00 0.00 0.00 46 1013.6
20260505204544 25 0 0.0 4.8 0.00 0.00 0.00 44 1013.8
20260505203047 25 0 0.0 4.8 0.00 0.00 0.00 45 1014.1
20260505201549 25 234 0.0 6.4 0.00 0.00 0.00 45 1014.3
20260505200043 25 21 0.0 3.2 0.00 0.00 0.00 44 1014.4
20260505194543 25 0 0.0 6.4 0.00 0.00 0.00 43 1014.7
20260505193049 25 0 0.0 3.2 0.00 0.00 0.00 42 1014.8
20260505191550 25 0 0.0 4.8 0.00 0.00 0.00 49 1015.0
20260505190048 25 0 0.0 4.8 0.00 0.00 0.00 44 1015.2
20260505184537 25 0 1.6 6.4 0.00 0.00 0.00 47 1015.4
20260505183051 25 0 0.0 8.0 0.00 0.00 0.00 46 1015.6
20260505181545 25 49 1.6 6.4 0.00 0.00 0.00 46 1015.8
20260505180046 25 0 1.6 6.4 0.00 0.00 0.00 44 1016.0
20260505174541 25 278 0.0 6.4 0.00 0.00 0.00 46 1016.5
20260505173046 25 50 0.0 6.4 0.00 0.00 0.00 46 1016.4
20260505171545 25 0 1.6 6.4 0.00 0.00 0.00 45 1016.5
20260505170047 25 275 1.6 6.4 0.00 0.00 0.00 46 1016.6
20260505164546 25 50 0.0 4.8 0.00 0.00 0.00 46 1016.7
20260505163046 25 114 0.0 6.4 0.00 0.00 0.00 48 1016.7
20260505161545 25 329 0.0 4.8 0.00 0.00 0.00 48 1016.7
20260505153059 23 0 0.0 4.8 0.00 0.00 0.00 53 1017.4
20260505151545 23 0 0.0 1.6 0.00 0.00 0.00 56 1017.2
20260505124545 11 0 0.0 0.0 0.00 0.00 0.00 93 1015.9
20260505123105 10 0 0.0 0.0 0.00 0.00 0.00 93 1015.8
20260505121541 10 0 0.0 0.0 0.00 0.00 0.00 92 1015.8
20260505120052 9 0 0.0 0.0 0.00 0.00 0.00 92 1015.8
20260505114553 9 0 0.0 0.0 0.00 0.00 0.00 92 1015.3
20260505113042 8 0 0.0 0.0 0.00 0.00 0.00 92 1015.3